Aberdeen, SD - Weather Station Data
Daily Summary for May 16, 2019 Units:  English    Metric   Both
Daily Weekly Monthly Yearly Custom
  High: Low: Average:
Temperature: 74 °F 53 °F 60.3 °F
Dew Point: 58 °F 34 °F 47.4 °F
Humidity: 83% 43% 64%
Wind Speed: 16mph 0mph 6.4mph
Wind Gust: 23mph - -
Wind- - SE
Pressure: 29.86 in 29.59 in -
Precipitation: 0.00 in    
Historical Graphs
 
 
Tabular Data for May 16, 2019
Time Temperature Dew Point Pressure Wind Wind Speed Wind Gust Humidity Rainfall Rate (Hourly) solar
01:00 74 °F 58 °F 29.59 in NNW 4 mph 10 mph 59% 0.00 in 0 W/m2
01:15 74 °F 57 °F 29.60 in North 8 mph 13 mph 57% 0.00 in 0 W/m2
01:30 73 °F 56 °F 29.61 in North 8 mph 17 mph 56% 0.00 in 0 W/m2
01:45 72 °F 56 °F 29.60 in NW 12 mph 13 mph 57% 0.00 in 0 W/m2
02:00 71 °F 56 °F 29.59 in North 4 mph 13 mph 59% 0.00 in 0 W/m2
02:15 70 °F 55 °F 29.59 in NNW 3 mph 12 mph 61% 0.00 in 0 W/m2
02:30 69 °F 55 °F 29.59 in North 7 mph 11 mph 63% 0.00 in 0 W/m2
02:45 68 °F 55 °F 29.60 in North 4 mph 11 mph 64% 0.00 in 0 W/m2
03:00 67 °F 55 °F 29.61 in North 4 mph 6 mph 65% 0.00 in 0 W/m2
03:15 66 °F 55 °F 29.60 in North 2 mph 5 mph 67% 0.00 in 0 W/m2
03:30 65 °F 54 °F 29.60 in Calm   5 mph 68% 0.00 in 0 W/m2
03:45 65 °F 54 °F 29.61 in North 2 mph 4 mph 69% 0.00 in 0 W/m2
04:00 64 °F 54 °F 29.61 in North 1 mph 4 mph 69% 0.00 in 0 W/m2
04:15 64 °F 53 °F 29.61 in North 3 mph 4 mph 69% 0.00 in 0 W/m2
04:30 63 °F 53 °F 29.62 in North 2 mph 2 mph 69% 0.00 in 0 W/m2
05:00 62 °F 52 °F 29.61 in Calm   2 mph 70% 0.00 in 0 W/m2
05:15 62 °F 52 °F 29.61 in Calm   2 mph 71% 0.00 in 0 W/m2
05:30 61 °F 52 °F 29.63 in North 4 mph 5 mph 72% 0.00 in 0 W/m2
05:45 62 °F 52 °F 29.63 in WNW 8 mph 11 mph 70% 0.00 in 0 W/m2
06:00 63 °F 51 °F 29.64 in NNW 5 mph 14 mph 66% 0.00 in 0 W/m2
06:15 63 °F 51 °F 29.64 in NNW 1 mph 8 mph 64% 0.00 in 0 W/m2
06:30 63 °F 50 °F 29.65 in NNW 4 mph 8 mph 65% 0.00 in 0 W/m2
06:45 62 °F 51 °F 29.65 in NNW 6 mph 9 mph 67% 0.00 in 0 W/m2
07:00 61 °F 50 °F 29.66 in NNW 3 mph 8 mph 69% 0.00 in 0 W/m2
07:15 60 °F 50 °F 29.67 in NNE 4 mph 9 mph 70% 0.00 in 11 W/m2
07:30 60 °F 50 °F 29.68 in North 2 mph 9 mph 71% 0.00 in 18 W/m2
07:45 59 °F 50 °F 29.68 in North 4 mph 11 mph 72% 0.00 in 25 W/m2
08:00 59 °F 50 °F 29.68 in North 5 mph 11 mph 73% 0.00 in 32 W/m2
08:15 59 °F 50 °F 29.68 in NE 7 mph 14 mph 73% 0.00 in 120 W/m2
08:30 60 °F 51 °F 29.69 in ENE 10 mph 18 mph 73% 0.00 in 174 W/m2
08:45 60 °F 52 °F 29.70 in NNE 9 mph 18 mph 74% 0.00 in 313 W/m2
09:00 60 °F 52 °F 29.73 in NNW 5 mph 16 mph 75% 0.00 in 318 W/m2
09:15 61 °F 53 °F 29.74 in North 4 mph 19 mph 75% 0.00 in 248 W/m2
09:30 61 °F 53 °F 29.75 in NNE 9 mph 16 mph 75% 0.00 in 113 W/m2
09:45 60 °F 53 °F 29.76 in NNW 11 mph 17 mph 76% 0.00 in 431 W/m2
10:00 61 °F 53 °F 29.76 in North 8 mph 18 mph 74% 0.00 in 401 W/m2
10:15 62 °F 53 °F 29.76 in North 9 mph 21 mph 73% 0.00 in 285 W/m2
10:30 60 °F 52 °F 29.78 in NNE 10 mph 18 mph 75% 0.00 in 98 W/m2
10:45 58 °F 51 °F 29.78 in NNE 6 mph 17 mph 79% 0.00 in 90 W/m2
11:00 57 °F 51 °F 29.77 in North 8 mph 23 mph 81% 0.00 in 65 W/m2
11:15 57 °F 51 °F 29.78 in North 5 mph 15 mph 83% 0.00 in 257 W/m2
11:30 57 °F 51 °F 29.80 in NNE 10 mph 14 mph 79% 0.00 in 156 W/m2
11:45 56 °F 50 °F 29.79 in North 9 mph 21 mph 80% 0.00 in 190 W/m2
12:00 55 °F 50 °F 29.80 in NNE 5 mph 17 mph 82% 0.00 in 213 W/m2
12:15 55 °F 49 °F 29.82 in North 9 mph 18 mph 80% 0.00 in 178 W/m2
12:30 55 °F 49 °F 29.81 in NNE 4 mph 17 mph 79% 0.00 in 359 W/m2
12:45 56 °F 48 °F 29.82 in NNE 3 mph 19 mph 77% 0.00 in 290 W/m2
13:00 55 °F 48 °F 29.82 in NNE 11 mph 16 mph 77% 0.00 in 192 W/m2
13:15 55 °F 48 °F 29.82 in North 8 mph 19 mph 77% 0.00 in 185 W/m2
13:30 55 °F 48 °F 29.83 in North 8 mph 19 mph 76% 0.00 in 404 W/m2
13:45 56 °F 48 °F 29.82 in North 9 mph 18 mph 74% 0.00 in 459 W/m2
14:00 57 °F 48 °F 29.83 in North 15 mph 22 mph 72% 0.00 in 439 W/m2
14:15 56 °F 47 °F 29.83 in NE 5 mph 21 mph 72% 0.00 in 188 W/m2
14:30 57 °F 48 °F 29.83 in North 10 mph 21 mph 71% 0.00 in 548 W/m2
14:45 57 °F 48 °F 29.83 in NNW 6 mph 19 mph 71% 0.00 in 800 W/m2
15:00 57 °F 47 °F 29.83 in NNE 5 mph 19 mph 68% 0.00 in 640 W/m2
15:15 59 °F 48 °F 29.83 in NE 16 mph 19 mph 66% 0.00 in 780 W/m2
15:30 59 °F 47 °F 29.84 in North 6 mph 15 mph 65% 0.00 in 638 W/m2
15:45 59 °F 47 °F 29.84 in NNE 12 mph 15 mph 64% 0.00 in 737 W/m2
16:00 60 °F 47 °F 29.85 in NNE 8 mph 19 mph 64% 0.00 in 751 W/m2
16:15 60 °F 47 °F 29.85 in NE 5 mph 17 mph 61% 0.00 in 663 W/m2
16:30 60 °F 46 °F 29.85 in North 8 mph 19 mph 60% 0.00 in 550 W/m2
16:45 60 °F 45 °F 29.84 in ENE 8 mph 16 mph 58% 0.00 in 346 W/m2
17:00 59 °F 46 °F 29.84 in North 8 mph 16 mph 61% 0.00 in 343 W/m2
17:15 60 °F 46 °F 29.84 in NNE 10 mph 18 mph 60% 0.00 in 367 W/m2
17:30 60 °F 47 °F 29.84 in NNE 9 mph 17 mph 62% 0.00 in 301 W/m2
17:45 61 °F 46 °F 29.84 in NE 4 mph 15 mph 60% 0.00 in 550 W/m2
18:00 62 °F 45 °F 29.83 in NNE 7 mph 16 mph 56% 0.00 in 279 W/m2
18:15 61 °F 45 °F 29.83 in NE 6 mph 14 mph 56% 0.00 in 513 W/m2
18:30 62 °F 46 °F 29.83 in NE 5 mph 14 mph 55% 0.00 in 526 W/m2
18:45 62 °F 46 °F 29.84 in ENE 12 mph 16 mph 55% 0.00 in 357 W/m2
19:00 62 °F 45 °F 29.83 in NE 4 mph 14 mph 54% 0.00 in 253 W/m2
19:15 63 °F 44 °F 29.83 in NNE 8 mph 16 mph 51% 0.00 in 225 W/m2
19:30 62 °F 43 °F 29.82 in NE 10 mph 17 mph 51% 0.00 in 156 W/m2
19:45 62 °F 44 °F 29.83 in NE 7 mph 15 mph 51% 0.00 in 244 W/m2
20:00 62 °F 42 °F 29.82 in NNE 8 mph 17 mph 49% 0.00 in 53 W/m2
20:15 61 °F 41 °F 29.83 in NE 14 mph 17 mph 47% 0.00 in 44 W/m2
20:30 61 °F 41 °F 29.83 in NE 7 mph 19 mph 47% 0.00 in 42 W/m2
20:45 61 °F 41 °F 29.83 in NNE 5 mph 16 mph 48% 0.00 in 35 W/m2
21:00 60 °F 39 °F 29.84 in North 5 mph 19 mph 46% 0.00 in 28 W/m2
21:15 60 °F 39 °F 29.85 in NE 3 mph 12 mph 46% 0.00 in 25 W/m2
21:30 59 °F 38 °F 29.86 in NNE 5 mph 13 mph 46% 0.00 in 16 W/m2
21:45 58 °F 36 °F 29.86 in NNE 4 mph 13 mph 44% 0.00 in 11 W/m2
22:00 58 °F 36 °F 29.86 in NNE 5 mph 12 mph 44% 0.00 in 0 W/m2
22:15 57 °F 34 °F 29.86 in NNE 6 mph 10 mph 43% 0.00 in 0 W/m2
22:30 56 °F 35 °F 29.85 in NNE 4 mph 6 mph 46% 0.00 in 0 W/m2
22:45 56 °F 35 °F 29.86 in ENE 10 mph 11 mph 46% 0.00 in 0 W/m2
23:00 55 °F 36 °F 29.86 in NE 3 mph 10 mph 48% 0.00 in 0 W/m2
23:15 55 °F 35 °F 29.86 in NE 7 mph 13 mph 47% 0.00 in 0 W/m2
23:30 55 °F 35 °F 29.86 in NNE 6 mph 13 mph 49% 0.00 in 0 W/m2
23:45 54 °F 36 °F 29.86 in NE 5 mph 12 mph 50% 0.00 in 0 W/m2
00:00 54 °F 36 °F 29.86 in NNE 6 mph 10 mph 52% 0.00 in 0 W/m2
00:15 53 °F 36 °F 29.86 in NNE 3 mph 11 mph 52% 0.00 in 0 W/m2
00:30 53 °F 36 °F 29.86 in NNE 9 mph 12 mph 54% 0.00 in 0 W/m2
00:45 53 °F 36 °F 29.84 in North 10 mph 15 mph 53% 0.00 in 0 W/m2
Compliments of Weather Underground - 2 mb